Date,TemperatureHighF,TemperatureAvgF,TemperatureLowF,DewpointHighF,DewpointAvgF,DewpointLowF,HumidityHigh,HumidityAvg,HumidityLow,PressureMaxIn,PressureMinIn,WindSpeedMaxMPH,WindSpeedAvgMPH,GustSpeedMaxMPH,PrecipitationSumIn
2013-1-1,38,34,33,34,33,26,98,94,62,30.11,29.97,1,0,6,0.11
2013-1-2,34,30,25,32,24,19,97,78,57,30.24,30.04,2,1,9,0.02
2013-1-3,40,31,22,26,23,20,95,76,53,30.28,30.18,2,0,6,0.03
2013-1-4,33,32,31,25,24,22,76,73,68,30.34,30.27,3,1,11,0.00
2013-1-5,42,32,22,30,25,20,94,76,53,30.43,30.19,1,0,5,0.01
2013-1-6,43,39,34,35,31,29,90,73,61,30.26,30.03,5,1,13,0.00
2013-1-7,38,32,26,30,26,24,93,79,64,30.49,30.26,5,0,11,0.00
2013-1-8,53,35,22,37,26,20,95,75,34,30.42,30.27,2,0,7,0.00
2013-1-9,50,40,29,48,38,27,97,92,81,30.50,30.27,2,0,7,0.06
2013-1-10,50,41,34,44,39,34,99,92,73,30.56,30.22,1,0,9,0.00
2013-1-11,66,56,44,56,50,41,98,82,64,30.22,29.94,7,2,17,0.06
2013-1-12,70,58,46,61,54,45,99,89,69,30.09,29.90,4,0,5,0.00
2013-1-13,69,60,50,59,54,49,99,83,58,29.98,29.81,13,0,14,0.13
2013-1-14,61,44,36,59,42,35,98,93,85,30.33,29.89,11,1,14,0.40
2013-1-15,38,36,35,36,35,34,98,95,88,30.32,30.02,3,0,7,0.77
2013-1-16,40,37,35,40,36,34,99,97,95,30.07,29.86,8,0,19,0.51
2013-1-17,38,36,32,37,33,30,96,89,83,30.24,30.05,2,0,6,0.00
2013-1-18,39,31,23,30,20,14,93,67,40,30.55,30.24,5,1,14,0.00
2013-1-19,58,42,24,27,22,17,93,52,22,30.35,29.94,5,2,14,0.00
2013-1-20,49,43,30,34,22,10,64,44,24,30.12,29.93,8,2,23,0.00
2013-1-21,40,29,20,22,17,8,84,61,36,30.13,29.92,8,2,18,0.00
2013-1-22,23,16,11,8,2,0,67,54,38,30.34,30.13,6,2,18,0.00
2013-1-23,25,18,9,19,8,-1,91,69,33,30.38,30.09,3,0,12,0.00
2013-1-24,25,19,10,19,12,4,92,74,46,30.57,30.08,4,1,12,0.00
2013-1-25,27,19,10,26,15,7,93,85,69,30.52,30.04,2,0,6,0.00
2013-1-26,31,28,26,26,24,22,94,84,71,30.44,30.16,3,0,9,0.00
2013-1-27,40,31,21,30,24,19,94,74,50,30.50,30.30,1,0,4,0.17
2013-1-28,59,46,33,53,43,29,98,89,65,30.30,30.07,2,0,10,0.47
2013-1-29,73,62,52,55,53,50,96,73,50,30.08,29.76,3,1,10,0.00
2013-1-30,73,62,49,64,54,44,95,78,56,29.76,29.28,10,3,25,1.22
2013-1-31,49,32,28,44,27,21,95,82,69,29.93,29.29,11,3,30,0.06
2013-2-1,29,17,9,27,10,6,94,75,61,30.43,29.83,8,2,17,0.00
2013-2-2,30,20,8,29,17,5,95,88,55,30.41,30.00,2,0,6,0.01
2013-2-3,31,28,25,29,25,20,95,87,80,30.11,29.87,5,1,15,0.00
2013-2-4,39,30,23,35,24,18,96,77,56,30.14,29.86,3,0,11,0.15
2013-2-5,42,38,36,40,37,35,98,96,91,29.93,29.84,2,0,9,0.36
2013-2-6,41,36,29,37,32,28,98,85,69,30.28,29.93,6,0,16,0.00
2013-2-7,56,41,29,40,34,28,97,78,44,30.28,29.93,4,1,10,0.00
2013-2-8,46,41,31,42,35,25,95,79,71,30.22,29.80,7,2,19,0.07
2013-2-9,40,32,28,25,21,19,80,64,43,30.41,30.22,4,1,10,0.00
2013-2-10,62,42,23,41,26,19,94,62,23,30.32,29.92,6,1,12,0.04
2013-2-11,65,56,46,52,38,24,81,54,26,29.96,29.73,7,3,23,0.01
2013-2-12,55,44,36,29,26,22,69,51,30,30.12,29.88,4,1,15,0.00
2013-2-13,44,36,32,37,32,26,96,86,57,29.91,29.63,3,0,7,0.35
2013-2-14,50,40,32,35,31,28,93,72,47,29.99,29.89,4,1,10,0.00
2013-2-15,42,36,33,34,33,30,96,89,70,30.06,29.92,2,0,9,0.14
2013-2-16,33,29,24,32,24,15,96,83,66,30.05,29.95,6,1,15,0.00
2013-2-17,26,21,16,16,11,4,87,67,54,30.31,30.00,6,2,15,0.00
2013-2-18,56,34,12,36,22,9,92,64,37,30.35,29.90,5,1,12,0.02
2013-2-19,50,43,31,42,31,21,88,63,40,29.99,29.73,10,4,19,0.04
2013-2-20,34,28,21,22,17,12,78,64,46,30.28,29.99,5,3,16,0.00
2013-2-21,35,26,17,20,17,12,86,69,53,30.36,30.18,2,0,7,0.00
2013-2-22,58,43,30,43,35,20,92,75,58,30.22,29.93,4,1,11,0.01
2013-2-23,58,46,38,45,39,34,95,78,51,29.94,29.80,3,0,7,0.00
2013-2-24,46,37,28,34,28,21,93,71,43,30.16,29.85,8,2,17,0.01
2013-2-25,49,34,21,27,23,19,93,67,36,30.20,29.99,2,0,7,0.00
2013-2-26,55,43,29,44,37,25,89,77,59,30.00,29.48,7,2,17,0.15
2013-2-27,47,42,35,44,37,32,94,84,65,29.73,29.52,4,1,12,0.12
2013-2-28,35,34,33,34,32,30,96,91,84,29.85,29.68,3,1,12,0.04
2013-3-1,35,33,31,34,31,25,97,90,78,29.97,29.84,2,0,6,0.08
2013-3-2,32,30,28,27,25,22,91,83,72,29.99,29.92,3,2,10,0.00
2013-3-3,30,27,26,25,23,19,93,83,70,30.06,29.97,4,1,11,0.00
2013-3-4,42,32,25,25,21,18,87,66,39,30.18,30.05,3,1,11,0.05
2013-3-5,52,40,29,42,33,25,92,76,62,30.07,29.52,3,0,9,0.39
2013-3-6,41,34,31,39,32,30,96,93,89,30.15,29.59,6,1,18,0.14
2013-3-7,39,36,34,34,32,31,93,87,79,30.29,30.14,3,1,10,0.04
2013-3-8,47,38,31,32,28,26,86,68,47,30.39,30.27,5,1,13,0.00
2013-3-9,65,44,25,35,30,24,95,63,27,30.39,30.13,2,0,5,0.00
2013-3-10,76,56,39,42,34,30,83,50,19,30.14,29.96,6,1,8,0.00
2013-3-11,62,60,56,52,40,31,86,49,35,29.96,29.69,9,3,21,0.02
2013-3-12,55,42,38,52,37,31,95,84,72,30.03,29.73,6,1,13,0.20
2013-3-13,39,38,37,34,33,32,87,82,78,30.01,29.97,2,0,4,0.00
2013-3-14,45,33,26,23,20,16,83,60,33,30.33,30.16,6,2,15,0.00
2013-3-15,60,42,24,41,29,20,89,62,40,30.20,29.82,5,1,10,0.00
2013-3-16,63,52,43,56,47,41,97,83,64,29.89,29.59,8,2,17,0.21
2013-3-17,48,38,34,42,35,33,97,91,80,30.11,29.89,3,1,9,0.21
2013-3-18,54,44,34,46,39,33,98,82,72,30.05,29.69,5,2,14,0.69
2013-3-19,54,46,38,48,28,9,96,55,22,30.02,29.68,11,4,29,0.05
2013-3-20,50,39,32,27,18,13,81,43,27,30.04,29.77,10,3,24,0.00
2013-3-21,32,30,27,22,19,17,80,66,57,29.89,29.88,6,4,13,0.00
2013-3-22,45,32,23,18,15,13,68,52,29,30.06,29.96,5,1,12,0.00
2013-3-23,52,36,23,26,21,18,89,57,27,30.07,29.92,3,1,7,0.00
2013-3-24,45,36,30,38,30,23,97,79,51,29.91,29.41,3,1,7,0.62
2013-3-25,39,36,33,35,33,31,95,90,81,29.79,29.42,5,2,15,0.15
2013-3-26,42,35,33,37,33,31,97,92,77,30.14,29.79,6,1,17,0.19
2013-3-27,42,36,33,34,30,28,93,79,62,30.23,30.13,6,2,15,0.00
2013-3-28,47,40,32,31,28,26,80,63,46,30.27,30.20,5,2,12,0.00
2013-3-29,56,46,37,33,30,25,82,56,32,30.29,30.15,5,1,14,0.00
2013-3-30,61,48,36,35,31,26,88,55,27,30.23,29.96,3,1,9,0.00
2013-3-31,53,48,42,51,45,34,97,90,65,29.96,29.74,3,0,10,0.24
2013-4-1,51,45,37,46,37,20,96,75,45,30.04,29.76,9,2,20,0.04
2013-4-2,48,37,29,26,19,14,88,50,28,30.21,30.04,7,2,14,0.00
2013-4-3,50,38,25,25,18,10,88,50,22,30.34,30.20,7,2,16,0.00
2013-4-4,56,41,28,39,23,14,93,53,22,30.34,29.97,4,1,10,0.06
2013-4-5,64,50,40,42,34,24,97,63,26,30.07,29.89,7,2,16,0.02
2013-4-6,70,53,32,34,24,15,81,37,13,30.22,29.99,6,2,13,0.00
2013-4-7,77,65,56,47,39,31,62,39,29,30.01,29.88,6,3,15,0.00
2013-4-8,82,66,48,52,48,45,91,56,29,30.02,29.86,5,1,14,0.00
2013-4-9,85,70,54,57,52,48,89,57,30,30.06,29.89,5,1,11,0.00
2013-4-10,90,73,55,59,53,50,85,53,30,29.97,29.77,5,2,13,0.00
2013-4-11,70,68,65,55,54,54,68,62,57,29.79,29.75,2,1,7,0.00
2013-4-12,76,63,53,63,50,35,94,66,36,29.84,29.45,8,3,22,0.40
2013-4-13,67,54,44,39,35,26,77,51,21,29.98,29.83,8,3,19,0.00
2013-4-14,74,57,38,45,37,33,90,52,27,30.10,29.89,3,1,7,0.00
2013-4-15,67,61,54,55,50,42,92,69,43,30.06,29.91,6,2,12,0.06
2013-4-16,85,71,61,61,55,52,94,60,37,30.14,29.97,14,2,27,0.14
2013-4-17,77,66,59,63,60,58,99,83,54,30.18,30.01,3,1,6,0.02
2013-4-18,87,73,57,60,57,52,98,60,37,30.02,29.74,10,4,17,0.01
2013-4-19,74,62,46,63,51,35,92,69,53,29.89,29.49,9,4,21,0.12
2013-4-20,58,48,39,37,30,24,75,52,28,30.35,29.90,7,3,17,0.01
2013-4-21,61,47,32,33,27,21,93,51,23,30.49,30.35,3,1,9,0.00
2013-4-22,72,56,39,39,31,22,87,43,21,30.37,30.14,4,1,10,0.00
2013-4-23,76,60,39,42,35,24,85,43,22,30.18,29.92,4,1,10,0.00
2013-4-24,79,62,44,58,48,40,91,63,36,30.16,29.74,9,2,23,0.15
2013-4-25,62,48,35,40,34,28,97,64,27,30.31,30.16,4,1,12,0.00
2013-4-26,67,52,36,41,34,28,95,56,24,30.42,30.29,3,1,9,0.00
2013-4-27,76,59,42,46,40,32,89,54,24,30.31,30.11,4,1,10,0.00
2013-4-28,68,61,55,53,50,46,91,68,55,30.09,29.89,5,2,10,0.25
2013-4-29,69,61,54,57,53,50,94,76,56,29.97,29.89,3,1,10,0.01
2013-4-30,81,65,50,58,52,48,99,68,33,30.08,29.95,3,1,10,0.00
2013-5-1,82,68,52,56,50,38,96,57,30,30.20,30.07,3,1,9,0.00
2013-5-2,79,67,50,54,47,39,87,52,34,30.23,30.09,2,1,7,0.00
2013-5-3,79,64,45,47,42,30,94,51,18,30.15,30.04,6,2,15,0.00
2013-5-4,73,62,49,45,38,25,66,44,17,30.07,29.95,3,1,11,0.00
2013-5-5,77,63,47,48,40,25,83,48,15,30.03,29.88,5,1,12,0.00
2013-5-6,70,62,55,57,52,47,96,73,51,29.92,29.85,4,1,18,0.26
2013-5-7,61,57,55,60,56,54,99,96,86,29.91,29.84,1,0,3,0.52
2013-5-8,68,59,54,59,55,49,99,88,53,29.94,29.82,2,0,4,0.12
2013-5-9,76,64,54,60,57,53,99,80,48,30.00,29.90,2,0,6,0.00
2013-5-10,80,64,55,66,59,55,100,87,46,29.98,29.80,3,0,12,0.18
2013-5-11,66,62,54,63,59,49,98,89,77,29.86,29.76,4,1,10,0.43
2013-5-12,56,51,43,50,38,32,92,64,41,30.08,29.84,4,1,11,0.00
2013-5-13,56,47,40,40,37,30,95,70,39,30.16,30.05,3,0,10,0.00
2013-5-14,71,54,36,49,40,32,99,66,26,30.18,29.87,2,0,9,0.00
2013-5-15,88,75,57,61,55,49,77,53,31,29.89,29.73,3,1,10,0.00
2013-5-16,75,73,72,54,52,51,53,49,45,29.81,29.80,1,0,3,0.00
2013-5-17,79,67,60,66,62,59,100,85,57,30.05,29.96,2,0,4,0.00
2013-5-18,78,68,60,67,63,59,98,86,61,30.04,29.95,2,0,4,0.07
2013-5-19,79,70,62,68,64,62,99,84,62,30.01,29.88,3,0,4,0.00
2013-5-20,82,71,61,71,66,60,98,84,64,30.00,29.90,2,0,5,0.00
2013-5-21,84,74,63,71,67,63,100,82,56,29.96,29.79,2,0,7,0.00
2013-5-22,85,70,62,69,65,61,98,86,53,29.87,29.75,3,0,7,0.09
2013-5-23,79,67,62,66,63,59,99,88,52,29.83,29.73,3,0,9,0.10
2013-5-24,62,51,45,60,44,38,96,79,53,30.27,29.83,4,1,13,0.10
2013-5-25,63,50,37,44,40,37,99,73,41,30.34,30.20,3,1,10,0.00
2013-5-26,68,54,40,48,40,33,99,66,29,30.29,30.19,2,0,6,0.00
2013-5-27,70,55,41,60,50,40,97,84,64,30.24,30.04,1,0,4,0.00
2013-5-28,83,70,57,66,60,56,97,74,47,30.08,29.94,2,0,6,0.00
2013-5-29,85,72,60,66,62,58,97,74,44,30.10,29.99,2,0,6,0.00
2013-5-30,86,74,60,70,65,59,99,78,52,30.16,30.00,1,0,4,0.00
2013-5-31,88,75,61,68,64,59,99,71,38,30.09,29.93,1,0,4,0.00
2013-6-1,88,77,66,72,66,63,94,71,48,29.96,29.78,2,0,6,0.00
2013-6-2,78,71,65,69,65,61,97,82,58,29.87,29.77,3,0,11,0.11
2013-6-3,74,67,61,66,63,58,100,87,68,29.97,29.82,3,0,7,0.00
2013-6-4,75,64,55,58,52,41,98,69,30,30.08,29.97,2,0,7,0.00
2013-6-5,84,68,52,66,59,50,96,75,53,30.04,29.84,2,0,4,0.00
2013-6-6,76,69,64,70,66,63,99,91,74,29.90,29.69,2,0,4,0.25
2013-6-7,67,66,61,67,65,60,100,98,93,29.81,29.67,2,0,5,0.43
2013-6-8,76,66,58,63,61,58,100,85,59,30.04,29.82,2,0,5,0.09
2013-6-9,85,71,60,69,63,59,100,80,44,30.07,29.93,2,0,5,0.04
2013-6-10,75,69,66,71,67,64,99,93,82,29.97,29.76,4,0,10,0.20
2013-6-11,79,70,65,68,66,63,98,86,64,29.88,29.80,2,0,6,0.08
2013-6-12,70,68,67,67,66,66,97,94,89,29.88,29.85,0,0,3,0.01
2013-6-23,86,76,66,72,68,65,99,80,52,30.11,30.00,1,0,4,0.00
2013-6-24,86,76,66,73,69,65,99,82,57,30.11,29.98,1,0,5,0.20
2013-6-25,86,76,68,73,70,68,100,84,62,30.05,29.88,1,0,5,0.00
2013-6-26,82,75,68,73,71,68,99,87,69,29.89,29.77,1,0,5,0.01
2013-6-27,73,70,68,72,69,68,100,97,86,29.79,29.65,3,0,7,0.27
2013-6-28,82,72,66,74,69,66,100,92,65,29.66,29.48,3,0,11,0.04
2013-6-29,79,70,61,70,66,61,100,87,65,29.64,29.53,2,0,5,0.00
2013-6-30,86,74,63,70,66,62,100,79,46,29.73,29.62,1,0,5,0.02
2013-7-1,82,72,68,74,69,66,100,91,67,29.87,29.72,4,0,11,0.18
2013-7-2,81,74,68,73,70,68,100,88,69,30.00,29.85,1,0,3,0.01
2013-7-3,82,74,67,73,69,66,99,86,71,30.10,29.99,1,0,5,0.00
2013-7-4,86,75,68,76,71,67,100,89,61,30.17,30.02,1,0,3,0.01
2013-7-5,84,76,69,76,72,69,100,88,64,30.10,30.04,2,0,5,0.07
2013-7-6,88,77,68,74,70,65,100,81,48,30.11,29.97,2,0,5,0.00
2013-7-7,76,72,69,73,70,68,100,94,83,30.07,29.99,3,0,6,0.11
2013-7-8,82,72,63,73,69,63,100,89,69,30.10,30.02,3,0,7,0.00
2013-7-9,85,76,70,76,72,70,100,89,64,30.06,29.94,1,0,6,0.01
2013-7-10,86,75,67,77,71,66,100,90,68,29.99,29.80,4,0,11,0.03
2013-7-11,68,67,67,67,67,67,99,99,98,29.86,29.83,1,0,3,0.00
2013-7-13,82,72,62,74,68,62,100,88,65,30.12,29.96,2,0,6,0.00
2013-7-14,87,77,67,72,69,67,100,80,55,30.21,30.10,2,0,5,0.00
2013-7-15,88,77,66,75,70,65,100,82,55,30.28,30.17,1,0,5,0.00
2013-7-16,89,79,70,76,73,69,100,83,57,30.27,30.17,1,0,5,0.00
2013-7-17,88,80,73,78,75,72,100,87,64,30.23,30.07,2,0,7,0.00
2013-7-18,90,80,73,77,75,73,100,86,63,30.11,29.97,1,0,5,0.00
2013-7-19,88,76,71,79,74,68,100,93,69,29.99,29.85,2,0,9,0.02
2013-7-20,88,76,70,76,72,69,100,90,61,29.90,29.80,4,0,13,0.02
2013-7-21,81,72,69,74,71,68,100,97,74,29.95,29.85,3,0,9,0.18
2013-7-22,82,74,70,76,72,70,100,93,77,29.88,29.72,2,0,5,0.20
2013-7-23,83,75,70,74,71,70,100,89,68,29.75,29.66,2,0,5,0.10
2013-7-24,75,71,63,72,67,62,98,88,68,29.91,29.67,2,0,9,0.02
2013-7-25,75,66,59,64,60,58,99,83,56,30.04,29.89,2,0,7,0.00
2013-7-26,80,69,57,68,62,57,100,81,51,30.05,29.93,1,0,4,0.00
2013-7-27,76,68,64,72,67,64,99,95,78,29.94,29.81,4,0,14,0.38
2013-7-28,77,69,60,67,64,58,100,84,57,30.02,29.78,2,0,5,0.25
2013-7-29,75,65,55,63,58,54,100,81,51,30.15,30.02,2,0,4,0.00
2013-7-30,79,69,59,66,62,59,100,82,54,30.19,30.08,1,0,4,0.00
2013-7-31,71,67,64,68,66,63,99,96,87,30.09,29.90,1,0,3,0.07
2013-8-1,80,71,65,72,68,65,100,92,72,29.91,29.81,2,0,4,0.10
2013-8-2,80,70,62,68,64,62,100,84,57,29.97,29.88,1,0,4,0.00
2013-8-3,76,69,64,70,67,63,99,93,78,29.96,29.91,0,0,3,0.02
2013-8-4,75,69,59,68,63,58,100,84,59,30.05,29.92,2,0,9,0.00
2013-8-5,78,66,56,63,58,52,100,78,43,30.07,29.93,2,0,5,0.00
2013-8-6,82,72,62,68,64,59,98,79,49,29.96,29.89,2,0,6,0.00
2013-8-7,86,73,64,76,69,64,99,89,66,29.93,29.86,3,0,10,0.01
2013-8-8,81,74,69,77,73,69,100,96,80,29.93,29.86,1,0,4,1.10
2013-8-9,81,75,72,75,73,72,100,94,77,29.96,29.86,3,0,7,0.56
2013-8-10,81,74,71,74,72,69,100,92,67,30.03,29.94,2,0,6,0.55
2013-8-11,83,75,70,74,71,69,100,89,65,30.04,29.94,1,0,4,0.00
2013-8-12,83,75,70,75,71,68,100,89,62,30.00,29.81,1,0,4,0.00
2013-8-13,76,71,65,74,70,63,100,95,83,29.91,29.76,3,0,13,0.67
2013-8-14,67,62,59,63,59,56,91,89,87,29.95,29.89,1,0,6,0.00
2013-8-15,74,63,53,62,57,52,99,83,59,30.14,30.02,2,0,5,0.00
2013-8-16,78,67,57,63,60,56,100,79,50,30.09,30.02,1,0,4,0.00
2013-8-17,75,67,58,67,62,57,100,86,60,30.16,30.08,1,0,2,0.00
2013-8-18,72,68,64,70,67,64,100,97,88,30.14,30.07,1,0,3,0.05
2013-8-19,79,71,64,69,67,64,100,89,66,30.08,30.01,2,0,6,0.00
2013-8-20,81,70,61,70,65,61,100,86,60,30.14,30.05,1,0,4,0.00
2013-8-21,81,72,64,76,69,64,100,92,73,30.13,30.02,1,0,5,0.80
2013-8-22,67,64,62,67,64,62,100,100,99,30.08,30.05,1,0,2,0.01
2013-8-23,78,69,64,71,67,64,100,93,75,30.09,29.93,1,0,5,0.43
2013-8-24,80,69,60,67,63,59,100,83,50,30.23,30.09,1,0,4,0.00
2013-8-25,80,70,61,68,64,60,100,83,52,30.33,30.19,1,0,4,0.00
2013-8-26,82,70,59,70,65,59,100,86,59,30.24,30.02,1,0,3,0.00
2013-8-27,82,74,66,75,71,66,100,91,77,30.03,29.90,1,0,3,0.00
2013-8-28,80,75,71,76,74,71,100,96,83,29.93,29.75,3,0,10,1.68
2013-8-29,83,76,71,75,73,71,100,91,70,29.94,29.82,2,0,6,0.02
2013-8-30,84,75,68,76,72,68,100,90,69,29.95,29.80,1,0,3,0.00
2013-8-31,82,74,68,75,71,68,100,92,71,29.87,29.74,2,0,5,0.01
2013-9-1,77,73,68,75,71,68,100,95,85,29.81,29.73,1,0,2,0.01
2013-9-2,82,73,67,74,71,67,100,92,70,29.81,29.71,2,0,5,0.01
2013-9-3,77,70,60,70,66,60,99,86,61,29.99,29.76,3,0,7,0.00
2013-9-4,74,64,57,65,60,57,100,89,62,30.10,29.99,1,0,5,0.00
2013-9-5,79,66,56,68,62,56,100,88,64,30.13,30.05,2,0,6,0.00
2013-9-6,76,64,56,63,58,51,99,82,42,30.18,30.06,2,0,5,0.00
2013-9-7,78,64,53,65,58,52,100,83,46,30.08,29.94,1,0,4,0.00
2013-9-8,83,70,60,73,66,59,99,88,64,29.95,29.87,2,0,4,0.00
2013-9-9,85,74,65,72,69,65,100,87,60,30.04,29.95,2,0,4,0.00
2013-9-10,86,76,67,78,72,67,99,88,68,30.12,30.00,1,0,4,0.00
2013-9-11,85,74,70,76,72,70,100,95,72,30.13,29.97,4,0,9,0.06
2013-9-12,71,70,69,71,70,69,100,99,99,29.98,29.95,0,0,1,0.00
2013-9-13,68,64,57,68,58,52,99,83,59,29.99,29.72,3,1,9,0.02
2013-9-14,64,56,49,54,51,47,99,84,60,30.12,29.99,2,0,5,0.01
2013-9-15,74,61,49,66,56,48,100,88,60,30.15,30.02,2,0,5,0.00
2013-9-16,67,62,56,62,60,55,100,93,71,30.23,30.01,2,0,6,0.01
2013-9-17,73,62,53,61,56,53,100,85,53,30.31,30.15,2,0,4,0.00
2013-9-18,70,61,51,65,59,51,100,93,74,30.19,30.07,1,0,3,0.00
2013-9-19,75,68,63,69,66,63,100,92,79,30.09,29.97,1,0,3,0.00
2013-9-20,78,70,66,73,69,66,100,96,82,29.99,29.79,1,0,3,0.00
2013-9-21,71,65,60,69,64,60,100,97,89,29.80,29.64,3,0,9,0.00
2013-9-22,66,60,54,61,57,53,100,89,69,29.96,29.76,2,0,6,0.01
2013-9-23,64,55,48,53,51,47,100,85,63,30.07,29.95,2,0,9,0.00
2013-9-24,71,57,47,61,53,46,100,88,57,30.06,29.90,2,0,5,0.00
2013-9-25,73,62,53,67,60,53,100,92,68,29.91,29.80,0,0,2,0.00
2013-9-26,75,65,55,63,58,43,100,83,32,30.02,29.84,2,0,7,0.00
2013-9-27,75,61,51,60,55,51,100,83,45,30.13,30.01,1,0,5,0.00
2013-9-28,75,62,51,64,57,51,100,86,53,30.19,30.08,1,0,2,0.00
2013-9-29,74,62,51,63,57,50,100,86,58,30.09,29.97,2,0,4,0.00
2013-9-30,74,63,56,64,61,56,100,92,65,30.02,29.94,2,0,6,0.00
2013-10-1,76,65,56,65,61,56,100,89,61,30.08,29.98,1,0,4,0.87
2013-10-2,78,66,56,68,62,56,100,88,62,30.11,30.00,1,0,4,0.00
2013-10-3,80,68,59,69,64,59,100,89,59,30.07,29.97,1,0,3,0.00
2013-10-4,82,69,60,70,65,60,100,88,60,30.10,29.99,2,0,4,0.00
2013-10-5,82,70,61,71,66,61,100,89,63,30.07,29.91,1,0,4,0.00
2013-10-6,85,74,63,70,64,60,100,76,46,29.92,29.68,2,1,5,0.00
2013-10-7,75,59,48,65,54,47,98,84,57,30.12,29.64,4,1,10,0.00
2013-10-8,68,55,46,51,48,45,100,81,44,30.24,30.11,2,0,6,0.00
2013-10-9,70,55,45,52,46,39,100,77,32,30.25,30.11,2,0,4,0.00
2013-10-10,74,62,52,61,56,51,97,83,61,30.12,29.97,2,0,7,0.00
2013-10-11,59,59,57,58,57,57,97,95,93,29.98,29.95,0,0,2,0.00
2013-10-16,70,62,55,63,59,55,100,90,70,29.96,29.87,1,0,4,0.00
2013-10-17,69,60,53,65,59,51,100,96,85,29.93,29.65,6,0,18,0.00
2013-10-18,63,53,45,51,47,44,100,81,52,30.04,29.93,2,0,5,0.00
2013-10-19,57,48,42,53,46,42,100,95,84,29.97,29.78,3,0,9,0.00
2013-10-20,59,48,41,44,41,38,99,80,47,30.08,29.97,2,0,4,0.00
2013-10-21,68,50,37,49,41,37,100,76,32,30.08,29.86,2,0,5,0.00
2013-10-22,56,47,40,50,42,38,98,86,63,29.98,29.83,2,0,5,0.00
2013-10-23,46,41,39,45,40,38,100,98,93,29.99,29.72,3,0,9,0.00
2013-10-24,43,39,36,38,37,36,98,92,78,30.19,29.99,2,0,7,0.29
2013-10-25,45,38,31,37,34,30,99,89,67,30.40,30.19,1,0,4,0.00
2013-10-26,54,42,28,36,30,27,99,69,35,30.33,29.96,3,1,6,0.10
2013-10-27,59,49,39,42,38,32,95,68,47,30.09,29.99,2,0,6,0.00
2013-10-28,65,50,37,49,43,36,99,81,51,30.23,30.08,2,0,5,0.00
2013-10-29,65,53,44,54,47,43,100,83,52,30.32,30.18,2,0,5,0.00
2013-10-30,61,56,51,60,56,49,100,97,91,30.19,30.04,1,0,2,0.16
2013-10-31,71,63,57,62,58,56,100,87,60,30.06,29.48,6,1,12,0.03
2013-11-1,72,62,50,62,53,46,96,72,45,29.69,29.43,7,2,15,0.04
2013-11-2,61,52,44,48,45,39,98,78,47,29.97,29.65,5,1,14,0.03
2013-11-3,52,45,34,44,39,33,99,81,54,30.41,29.97,2,0,7,0.20
2013-11-4,61,45,32,40,34,31,99,71,37,30.47,30.34,2,0,4,0.00
2013-11-5,64,50,39,41,35,20,94,60,18,30.47,30.30,3,0,5,0.00
2013-11-6,76,63,41,54,50,35,94,66,44,30.31,29.89,4,2,11,0.00
2013-11-7,67,49,34,56,43,31,97,81,56,30.18,29.86,7,1,13,0.43
2013-11-8,49,40,31,35,31,28,94,73,46,30.32,30.16,3,1,10,0.00
2013-11-9,63,46,30,40,27,20,99,57,20,30.29,30.04,4,1,10,0.00
2013-11-10,56,47,32,40,32,28,88,57,41,30.31,30.05,6,2,17,0.00
2013-11-11,60,44,29,41,29,23,96,62,25,30.32,30.02,3,0,10,0.00
2013-11-12,52,35,28,43,32,24,96,88,58,30.54,30.02,5,1,14,0.08
2013-11-13,36,29,23,26,24,21,94,82,66,30.61,30.44,3,0,6,0.02
2013-11-14,27,25,24,24,23,22,94,93,91,30.45,30.42,0,0,0,0.00
2013-11-15,61,44,27,46,34,26,98,75,35,30.29,30.14,4,0,11,0.09
2013-11-16,66,54,43,56,50,42,100,85,64,30.21,30.00,2,0,5,0.01
2013-11-17,70,63,54,61,55,50,88,75,60,29.99,29.60,7,2,23,0.17
2013-11-18,60,53,42,50,39,31,85,60,39,30.07,29.77,6,2,16,0.00
2013-11-19,43,38,31,32,28,27,87,68,60,30.35,30.06,5,1,10,0.00
2013-11-20,57,41,28,32,26,20,93,59,25,30.39,30.26,4,1,9,0.00
2013-11-21,61,48,33,49,40,28,90,73,55,30.39,30.18,4,0,4,0.00
2013-11-22,60,56,45,58,53,44,99,92,71,30.20,30.05,12,1,12,0.37
2013-11-23,46,38,25,44,30,11,97,76,49,30.39,30.17,20,3,20,0.01
2013-11-24,29,23,17,14,11,8,84,60,43,30.59,30.38,15,2,16,0.00
2013-11-25,47,31,16,33,17,11,92,61,25,30.57,30.24,15,1,15,0.00
2013-11-26,41,38,35,40,37,33,99,98,82,30.24,29.71,5,0,6,1.27
2013-11-27,36,30,25,36,28,21,99,94,85,30.25,29.73,10,1,10,0.00
2013-11-28,34,28,21,27,24,19,95,85,66,30.47,30.23,4,0,5,0.08
2013-11-29,40,30,21,29,25,19,97,82,54,30.64,30.46,4,0,4,0.05
2013-11-30,52,34,22,36,27,20,97,78,40,30.56,30.22,5,0,6,0.01
2013-12-1,46,36,26,36,30,25,98,79,51,30.24,29.95,6,0,6,0.00
2013-12-2,55,43,37,40,36,35,96,79,52,29.96,29.77,5,0,6,0.00
2013-12-3,56,43,33,44,38,32,99,83,56,29.90,29.80,2,0,5,0.00
2013-12-4,67,52,37,50,44,36,98,77,53,29.96,29.82,3,1,7,0.00
2013-12-5,71,60,43,59,53,42,99,77,56,29.98,29.81,7,2,18,0.47
2013-12-6,44,37,32,42,36,32,98,97,95,30.25,29.97,4,1,18,1.72
2013-12-7,33,29,25,32,27,22,97,92,85,30.55,30.22,3,1,7,0.01
2013-12-8,34,30,25,33,29,22,99,96,89,30.53,30.00,3,0,5,0.33
2013-12-9,40,36,33,40,35,29,100,96,85,30.18,29.98,7,1,7,0.38
2013-12-10,33,30,26,31,25,18,97,84,68,30.33,30.03,5,1,11,0.01
2013-12-11,38,29,19,25,20,16,92,72,53,30.43,30.27,11,1,14,0.05
2013-12-12,29,24,18,22,13,8,82,63,44,30.52,30.36,9,1,12,0.00
2013-12-13,41,29,18,25,16,12,85,60,34,30.37,30.22,7,1,7,0.01
2013-12-14,48,39,29,43,36,24,99,88,75,30.24,29.66,13,1,14,0.25
2013-12-15,43,32,29,41,30,25,96,90,81,30.08,29.66,13,2,15,0.04
2013-12-16,33,30,28,31,28,25,97,91,84,30.16,30.03,7,0,7,0.01
2013-12-17,41,36,30,38,34,27,98,92,84,30.11,29.92,13,1,13,0.27
2013-12-18,38,31,26,28,25,22,92,77,57,30.24,30.10,11,1,11,0.01
2013-12-19,60,41,24,35,28,23,95,65,27,30.20,30.03,11,1,11,0.00
2013-12-20,62,53,37,51,38,28,85,60,34,30.06,29.90,7,1,11,0.01
2013-12-21,72,66,58,59,53,49,80,65,52,29.91,29.63,11,2,13,0.03
2013-12-22,71,60,53,60,54,51,96,81,63,29.94,29.61,19,2,19,0.38
2013-12-23,58,40,30,52,38,24,98,90,77,30.31,29.91,8,2,14,0.20
2013-12-24,31,26,14,26,19,9,93,76,49,30.54,30.26,11,2,16,0.00
2013-12-25,40,23,13,25,15,11,94,76,34,30.53,30.19,3,0,6,0.00
2013-12-26,42,34,24,28,24,20,92,69,45,30.38,30.19,4,1,10,0.00
2013-12-27,48,32,21,28,22,19,95,72,34,30.45,30.32,3,0,6,0.00
2013-12-28,54,37,22,34,25,20,95,68,32,30.37,29.99,2,0,6,0.00
2013-12-29,43,39,35,43,38,32,100,96,80,30.06,29.68,4,1,13,0.74
2013-12-30,41,32,29,39,30,26,97,91,83,30.17,29.90,4,1,9,0.02
2013-12-31,32,28,21,28,23,20,95,81,66,30.36,30.15,4,1,16,0.00
2014-1-1,51,32,20,30,25,19,97,79,42,30.37,29.98,2,0,4,0.00
2014-1-2,38,29,14,37,28,12,98,95,89,30.10,29.63,6,1,15,0.13